This is the latest recevied weather packets stored in our database for station/object G4KVI. If no packets are shown the sender has not sent any weather packets the latest 10 day(s).
| Time | Temp. | Humidity | Pressure | Rain* | Wind** | Luminosity | Snow |
|---|---|---|---|---|---|---|---|
| 1788030006 | 17.78° C | 93% | 1005.3 hPa | 0 mm | - | 1 W/m² | - |
| 1788029706 | 17.78° C | 93% | 1005.1 hPa | 0 mm | - | 4 W/m² | - |
| 1788029406 | 17.78° C | 92% | 1005 hPa | 0 mm | - | 6 W/m² | - |
| 1788029106 | 17.78° C | 92% | 1004.8 hPa | 0 mm | - | 9 W/m² | - |
| 1788028806 | 17.78° C | 92% | 1005.1 hPa | 0 mm | - | 11 W/m² | - |
| 1788028506 | 17.78° C | 92% | 1004.8 hPa | 0 mm | - | 13 W/m² | - |
| 1788028206 | 17.78° C | 92% | 1004.6 hPa | 0.25 mm | - | 12 W/m² | - |
| 1788027906 | 17.78° C | 92% | 1004.9 hPa | 1.02 mm | - | 18 W/m² | - |
| 1788027606 | 17.78° C | 92% | 1004.6 hPa | 2.03 mm | - | 14 W/m² | - |
| 1788027306 | 17.78° C | 92% | 1004.4 hPa | 2.03 mm | - | 13 W/m² | - |
| 1788027006 | 17.78° C | 92% | 1004.5 hPa | 2.03 mm | - | 18 W/m² | - |
| 1788026706 | 17.78° C | 92% | 1004.6 hPa | 2.03 mm | - | 17 W/m² | - |
| 1788026406 | 17.78° C | 91% | 1004.4 hPa | 2.03 mm | - | 23 W/m² | - |
| 1788026106 | 17.78° C | 91% | 1004.5 hPa | 2.03 mm | - | 29 W/m² | - |
| 1788025806 | 18.33° C | 91% | 1004.4 hPa | 2.03 mm | - | 57 W/m² | - |
| 1788025506 | 18.33° C | 91% | 1004.3 hPa | 2.03 mm | - | 111 W/m² | - |
| 1788025206 | 17.78° C | 91% | 1004.3 hPa | 2.03 mm | - | 87 W/m² | - |
| 1788024906 | 17.78° C | 90% | 1004.4 hPa | 2.03 mm | - | 111 W/m² | - |
| 1788024606 | 18.33° C | 88% | 1004.4 hPa | 1.78 mm | - | 69 W/m² | - |
| 1788024306 | 18.89° C | 86% | 1004.4 hPa | 1.02 mm | - | 42 W/m² | - |
| 1788024006 | 19.44° C | 84% | 1004.2 hPa | 0 mm | - | 16 W/m² | - |
| 1788023706 | 20° C | 82% | 1004.1 hPa | 0 mm | - | 15 W/m² | - |
| 1788023406 | 20.56° C | 79% | 1003.9 hPa | 0 mm | - | 25 W/m² | - |
| 1788023106 | 21.11° C | 77% | 1003.8 hPa | 0 mm | - | 48 W/m² | - |
| 1788022806 | 21.11° C | 76% | 1003.6 hPa | 0 mm | - | 51 W/m² | - |
* Rain latest hour (hover to see other rain measurements)
** Current wind speed in m/s (hover to see current wind gust speed)